Location: Napier
(39.4830°S, 176.9170°E)
Time: 22:31:02
(UTC+12:00)

Resurs 01 Rocket - Pass Details

Date: 24 January 2019
Orbit: 634 x 645 km, 98.1° (Epoch: 20 April)

Event Time Altitude Azimuth Distance (km) Brightness Sun altitude
Rises 21:36:09 0° 157° (SSE) 2,974 5.2 -10.8°
Reaches altitude 10° 21:38:36 10° 146° (SE) 2,055 4.3 -11.1°
Maximum altitude 21:42:35 31° 83° (E) 1,132 2.4 -11.8°
Enters shadow 21:45:35 15° 28° (NNE) 1,710 3.3 -12.2°
